Tracking 19720 objects as of 26-Jun-2019
HD Live streaming from Space Station
objects crossing your sky now

SL-16 DEB

Track SL-16 DEB now!
10-day predictions


NORAD ID: 28355
Int'l Code: 2004-021D
Perigee: 845.4 km
Apogee: 1,185.6 km
Inclination: 71.0 °
Period: 105.3 minutes
Semi major axis: 7386 km
RCS: 0.0925 m2 (small)
Launch date: June 10, 2004
Source: Commonwealth of Independent States (former USSR) (CIS)
Launch site: TYURATAM MISSILE AND SPACE COMPLEX (TTMTR)

Note: This is SATELLITE DEBRIS
aabbcc
Your satellite tracking list
Your tracking list is empty




NASA's NSSDC Master Catalog

Two Line Element Set (TLE):
1 28355U 04021D   19177.22728182  .00000047  00000-0  89453-4 0  9991
2 28355  70.9695  91.8593 0230326 296.5648 219.2342 13.67560147750434
Source of the keplerian elements: AFSPC